Flag for Japan Weather past 2 weeks in Kumamoto, Japan

Now
73 °F

Passing clouds.


Feels Like: 77 °F
Forecast: 55 / 76 °F
Wind: 7 mph from West

Location: Saga Airport


UV Index: 7 (High)

Visibility: N/A


Pressure: 30.18 "Hg

Humidity: 31%

Dew point: 41 °F

Location of KumamotoLocation

Historic Weather in Kumamoto

°F

Kumamoto temperature yesterday

Maximum temperature yesterday: 75 °F (at 2:00 PM)
Minimum temperature yesterday: 46 °F (at 6:00 AM)
Average temperature yesterday: 62 °F

Past Weeks' High & Low Weather Summary

 TemperatureHumidityPressure
High75 °F (Apr 24, 2:00 PM)94% (Apr 11, 4:00 AM)30.24 "Hg (Apr 11, 4:00 AM)
Low39 °F (Apr 15, 6:00 AM)18% (Apr 24, 4:00 PM)29.77 "Hg (Apr 18, 4:00 AM)
Average60 °F68%30.00 "Hg
* Reported Apr 10 1:00 PM — Apr 25 1:00 PM, Kumamoto, Weather by CustomWeather, © 2014

Note: Actual official high and low records may vary slightly from our data, if they occured in-between our weather recording intervals... More about our weather records

Advertising

Historic Weather Conditions — Data for Previous 24 hours

 ConditionsComfort  
Time TempWeatherWind HumidityBarometerVisibility
1:00 PM
Apr 25
72 °FPassing clouds.6 mph36%30.21 "HgN/A
12:00 PM70 °FPassing clouds.6 mph43%30.21 "HgN/A
11:00 AM68 °FPassing clouds.5 mph40%30.24 "HgN/A
10:00 AM64 °FPassing clouds.5 mph56%30.24 "HgN/A
9:00 AM63 °FPassing clouds.3 mph56%30.24 "HgN/A
8:00 AM57 °FSunny.6 mph63%30.24 "Hg10 mi
7:00 AM52 °FSunny.5 mph77%30.24 "Hg10 mi
6:00 AM46 °FSunny.6 mph82%30.21 "Hg10 mi
4:00 AM52 °FPassing clouds.6 mph67%30.18 "HgN/A
3:00 AM50 °FClear.3 mph71%30.18 "Hg10 mi
2:00 AM54 °FClear.5 mph63%30.18 "Hg10 mi
1:00 AM52 °FClear.2 mph67%30.18 "Hg10 mi
12:00 AM55 °FClear.8 mph59%30.18 "Hg10 mi
11:00 PM
Apr 24
57 °FClear.8 mph55%30.18 "Hg10 mi
9:00 PM64 °FClear.8 mph32%30.15 "Hg10 mi
8:00 PM66 °FClear.6 mph32%30.15 "Hg10 mi
7:00 PM68 °FPassing clouds.1 mph33%30.12 "HgN/A
6:00 PM72 °FSunny.2 mph25%30.12 "Hg10 mi
5:00 PM73 °FSunny.8 mph19%30.09 "Hg10 mi
4:00 PM75 °FSunny.9 mph18%30.09 "Hg10 mi
3:00 PM75 °FSunny.13 mph19%30.12 "Hg10 mi
2:00 PM75 °FPassing clouds.8 mph36%30.12 "HgN/A
Weather by CustomWeather, © 2014

See weather overview